GW1238 Weather Reports


time (UTC)temp
C
wind
direction
speed
KPH
gust
KPH
rain 1hr
cm
rain 24hr
cm
rain mn
cm
humidity
%
barometer
mb
20260507110711 13 37 0.0 1.6 0.00 0.56 0.56 99 1015.5
20260507110207 13 342 1.6 3.2 0.00 0.56 0.56 99 1015.7
20260507105704 13 273 0.0 1.6 0.00 0.56 0.56 99 1015.4
20260507105200 13 345 1.6 1.6 0.00 0.56 0.56 99 1015.3
20260507104658 14 117 0.0 0.0 0.00 0.56 0.56 99 1015.4
20260507104154 14 303 3.2 3.2 0.00 0.56 0.56 99 1015.3
20260507103650 14 82 3.2 3.2 0.00 0.56 0.56 99 1014.9
20260507103147 14 19 0.0 1.6 0.00 0.56 0.56 99 1015.1
20260507102643 14 269 0.0 1.6 0.00 0.56 0.56 99 1015.1
20260507102140 14 129 0.0 1.6 0.00 0.56 0.56 99 1014.9
20260507101636 14 186 0.0 1.6 0.00 0.56 0.56 99 1015.0
20260507101131 14 248 1.6 3.2 0.00 0.56 0.56 99 1015.2
20260507100629 14 312 0.0 1.6 0.00 0.56 0.56 99 1015.3
20260507100127 14 321 0.0 3.2 0.00 0.56 0.56 99 1015.5
20260507095625 14 31 1.6 3.2 0.00 0.56 0.56 99 1015.4
20260507095121 14 113 0.0 1.6 0.18 0.56 0.56 99 1015.2
20260507094617 14 346 1.6 1.6 0.18 0.56 0.56 99 1015.4
20260507094114 15 148 0.0 1.6 0.13 0.53 0.53 99 1015.7
20260507093612 14 67 1.6 3.2 0.61 0.53 0.53 99 1015.3
20260507093111 14 27 1.6 1.6 0.79 0.51 0.51 99 1015.5
20260507092606 14 90 0.0 3.2 0.30 0.43 0.43 99 1015.3
20260507092103 14 83 0.0 0.0 0.18 0.38 0.38 99 1015.5
20260507091600 14 260 1.6 4.8 0.18 0.38 0.38 99 1015.9
20260507091056 14 280 0.0 4.8 0.00 0.36 0.36 99 1015.9
20260507090552 15 287 1.6 4.8 0.13 0.36 0.36 99 1015.6
20260507090049 15 260 1.6 4.8 0.13 0.36 0.36 99 1015.0
20260507085546 15 335 3.2 3.2 0.18 0.33 0.33 99 1014.9
20260507085043 15 128 0.0 1.6 0.48 0.33 0.33 99 1014.5
20260507084539 15 29 1.6 1.6 0.61 0.30 0.30 99 1014.8
20260507084037 15 178 0.0 0.0 0.61 0.25 0.25 99 1015.3
20260507083533 15 198 0.0 4.8 0.43 0.20 0.20 99 1015.5
20260507083030 15 284 1.6 1.6 0.13 0.15 0.15 99 1015.7
20260507082526 15 232 0.0 1.6 0.00 0.13 0.13 99 1015.6
20260507082022 15 309 1.6 3.2 0.00 0.13 0.13 99 1015.2
20260507081519 15 317 3.2 6.4 0.00 0.13 0.13 99 1015.1
20260507081016 15 297 3.2 3.2 0.00 0.13 0.13 99 1014.9
20260507080511 15 333 1.6 3.2 0.00 0.13 0.13 99 1015.6
20260507080008 15 344 0.0 3.2 0.00 0.13 0.13 99 1015.2
20260507075503 15 66 0.0 1.6 0.00 0.13 0.13 99 1015.0
20260507075000 15 28 0.0 3.2 0.00 0.13 0.13 99 1015.3
20260507074457 16 253 1.6 3.2 0.00 0.13 0.13 99 1015.2
20260507073955 16 344 3.2 3.2 0.00 0.13 0.13 99 1014.9
20260507073451 16 298 3.2 4.8 0.00 0.13 0.13 99 1015.2
20260507072948 16 265 1.6 4.8 0.00 0.13 0.13 99 1015.3
20260507072445 16 351 1.6 4.8 0.00 0.13 0.13 99 1015.0
20260507071943 16 313 1.6 4.8 0.00 0.13 0.13 99 1014.9
20260507071440 17 305 3.2 3.2 0.00 0.13 0.13 99 1014.6
20260507070936 17 75 3.2 6.4 0.00 0.13 0.13 99 1014.4
20260507070434 17 82 4.8 4.8 0.00 0.13 0.13 99 1014.7
20260507065930 17 98 3.2 4.8 0.00 0.13 0.13 99 1014.9
20260507065427 17 119 3.2 4.8 0.00 0.13 0.13 99 1015.2
20260507064924 17 123 1.6 3.2 0.00 0.13 0.13 99 1015.3
20260507064422 17 127 0.0 0.0 0.00 0.13 0.13 99 1014.9
20260507063920 17 305 0.0 1.6 0.00 0.13 0.13 99 1015.4
20260507063417 17 307 1.6 3.2 0.00 0.13 0.13 99 1015.5
20260507062914 17 331 0.0 0.0 0.00 0.13 0.13 99 1015.4
20260507062411 17 194 0.0 0.0 0.00 0.13 0.13 99 1015.5
20260507061908 17 217 0.0 0.0 0.00 0.13 0.13 99 1015.5
20260507061406 17 175 3.2 4.8 0.00 0.13 0.13 99 1015.5
20260507060904 17 196 6.4 9.7 0.00 0.13 0.13 99 1015.4
20260507060401 17 191 6.4 6.4 0.00 0.13 0.13 99 1015.8
20260507055858 17 207 0.0 0.0 0.00 0.13 0.13 99 1016.1
20260507055352 17 184 0.0 1.6 0.00 0.13 0.13 99 1015.7
20260507054850 17 197 0.0 0.0 0.00 0.13 0.13 99 1015.8
20260507054346 17 239 1.6 3.2 0.00 0.13 0.13 99 1015.6
20260507053843 17 189 0.0 1.6 0.00 0.13 0.13 99 1015.7
20260507053341 17 233 0.0 1.6 0.00 0.13 0.13 99 1015.1
20260507052839 17 151 0.0 0.0 0.00 0.13 0.13 99 1015.4
20260507052336 17 277 0.0 1.6 0.00 0.13 0.13 99 1015.5
20260507051833 18 302 0.0 1.6 0.00 0.13 0.13 99 1014.9
20260507051331 18 350 0.0 1.6 0.00 0.13 0.13 99 1015.1
20260507050827 18 168 0.0 4.8 0.00 0.13 0.13 99 1015.3
20260507050324 18 173 4.8 4.8 0.00 0.13 0.13 99 1015.4
20260507045821 18 175 4.8 6.4 0.00 0.13 0.13 99 1015.0
20260507045317 18 177 4.8 6.4 0.00 0.13 0.13 99 1014.8
20260507044815 18 181 6.4 6.4 0.00 0.13 0.13 99 1015.0
20260507044311 18 188 4.8 4.8 0.00 0.13 0.13 99 1015.4
20260507043807 18 178 4.8 6.4 0.18 0.13 0.13 99 1015.9
20260507043304 18 190 4.8 6.4 0.18 0.13 0.13 99 1016.0
20260507042800 18 195 3.2 3.2 0.18 0.10 0.10 99 1015.7
20260507042255 18 144 0.0 0.0 0.48 0.10 0.10 99 1015.9
20260507041753 18 288 0.0 0.0 0.43 0.08 0.08 99 1016.3
20260507041249 18 134 0.0 0.0 0.13 0.03 0.03 99 1016.2
20260507040747 18 238 0.0 1.6 0.00 0.00 0.00 99 1016.1
20260507040242 18 169 1.6 1.6 0.00 0.00 0.00 99 1015.9
20260507035739 18 169 3.2 6.4 0.00 4.09 4.09 99 1016.0
20260507035234 18 197 4.8 4.8 0.00 4.09 4.09 99 1016.2
20260507034732 18 174 3.2 4.8 0.00 4.09 4.09 99 1015.9
20260507034228 18 181 4.8 6.4 0.00 4.09 4.09 99 1016.3
20260507033727 18 259 0.0 4.8 0.00 4.09 4.09 99 1016.6
20260507033224 18 157 1.6 4.8 0.00 4.09 4.09 99 1016.0
20260507032722 18 201 3.2 4.8 0.00 4.09 4.09 99 1016.4
20260507032217 18 134 1.6 3.2 0.00 4.09 4.09 99 1016.2
20260507031714 18 132 3.2 4.8 0.00 4.09 4.09 99 1016.0
20260507031211 18 151 4.8 4.8 0.00 4.09 4.09 99 1016.2
20260507030708 18 158 3.2 6.4 0.18 4.09 4.09 99 1016.4
20260507030205 18 165 3.2 4.8 0.48 4.09 4.09 99 1016.2
20260507025702 18 181 4.8 6.4 0.71 4.06 4.06 99 1016.5
20260507025159 18 151 3.2 3.2 0.43 4.01 4.01 99 1016.2
20260507024657 18 163 4.8 6.4 0.00 3.94 3.94 99 1016.7
20260507024154 18 177 0.0 0.0 0.00 3.94 3.94 99 1016.1
20260507023649 18 169 0.0 0.0 0.00 3.94 3.94 99 1016.1
20260507023147 18 200 0.0 1.6 0.00 3.94 3.94 99 1016.1
20260507022644 18 291 1.6 1.6 0.00 3.94 3.94 99 1016.1
20260507022140 18 273 0.0 0.0 0.00 3.94 3.94 99 1016.0
20260507021636 18 134 0.0 0.0 0.00 3.94 3.94 99 1015.7
20260507021132 18 302 0.0 0.0 0.00 3.94 3.94 99 1016.1
20260507020630 18 261 1.6 1.6 0.00 3.94 3.94 99 1016.3
20260507020126 18 149 1.6 3.2 0.00 3.94 3.94 99 1016.1
20260507015625 18 140 3.2 3.2 0.00 3.94 3.94 99 1016.0
20260507015122 18 143 3.2 4.8 0.00 3.94 3.94 99 1016.1
20260507014618 18 148 3.2 4.8 0.00 3.94 3.94 99 1016.1
20260507014114 18 145 4.8 4.8 0.00 3.94 3.94 99 1016.4
20260507013611 18 146 0.0 0.0 0.00 3.94 3.94 99 1016.6
20260507013108 18 168 0.0 0.0 0.00 3.94 3.94 99 1016.6
20260507012606 18 63 0.0 0.0 0.00 3.94 3.94 99 1016.5
20260507012101 18 201 0.0 0.0 0.00 3.94 3.94 99 1016.7
20260507011559 18 195 0.0 0.0 0.00 3.94 3.94 99 1016.8
20260507011055 18 184 0.0 0.0 0.00 3.94 3.94 99 1016.4
20260507010550 18 134 0.0 1.6 0.00 3.94 3.94 99 1016.2
20260507010046 18 140 0.0 0.0 0.00 3.94 3.94 99 1016.3
20260507005544 18 125 0.0 0.0 0.00 3.94 3.94 99 1016.1
20260507005040 18 313 0.0 3.2 0.00 3.94 3.94 99 1015.8
20260507004537 18 173 1.6 3.2 0.00 3.94 3.94 99 1016.0
20260507004035 18 194 3.2 3.2 0.00 3.94 3.94 99 1016.1
20260507003530 18 179 3.2 6.4 0.00 3.94 3.94 99 1016.3
20260507003025 18 186 4.8 9.7 0.00 3.94 3.94 99 1016.2
20260507002522 18 167 8.0 11.3 0.00 3.94 3.94 99 1016.1
20260507002018 18 157 6.4 6.4 0.00 3.94 3.94 99 1015.7
20260507001515 18 126 8.0 9.7 0.30 3.94 3.94 99 1014.8
20260507001013 18 102 3.2 3.2 0.66 3.94 3.94 99 1015.3
20260507000508 18 73 4.8 4.8 0.48 3.89 3.89 99 1015.7
20260507000004 18 289 0.0 3.2 0.00 3.81 3.81 99 1017.4
20260506235502 18 271 3.2 4.8 0.00 3.81 3.81 99 1016.9
20260506234957 18 246 0.0 1.6 0.00 3.81 3.81 99 1016.3
20260506234455 18 190 0.0 3.2 0.00 3.81 3.81 99 1016.0
20260506233952 18 171 0.0 0.0 0.00 3.81 3.81 99 1016.0
20260506233448 18 269 0.0 1.6 0.18 3.81 3.81 99 1016.1
20260506232939 18 217 0.0 1.6 0.30 3.81 3.81 99 1016.2
20260506232435 18 164 0.0 1.6 0.43 3.78 3.78 99 1016.3
20260506231931 18 194 3.2 6.4 1.19 3.73 3.73 99 1016.8
20260506231429 18 196 3.2 3.2 1.27 3.71 3.71 99 1016.2
20260506230926 18 107 0.0 3.2 0.18 3.53 3.53 99 1016.5
20260506230422 18 204 4.8 6.4 0.00 3.51 3.51 99 1015.6
20260506225920 18 171 4.8 6.4 0.30 3.51 3.51 99 1015.4
20260506225417 18 194 0.0 1.6 0.61 3.51 3.51 99 1015.5
20260506224914 18 5 0.0 3.2 0.43 3.45 3.45 99 1015.8
20260506224411 18 192 6.4 11.3 0.43 3.40 3.40 99 1015.8
20260506223907 18 159 4.8 4.8 0.61 3.38 3.38 99 1015.2
20260506223402 18 194 1.6 4.8 1.07 3.33 3.33 99 1015.4
20260506222859 18 148 1.6 1.6 0.79 3.25 3.25 99 1015.5
20260506222355 18 191 1.6 3.2 1.37 3.15 3.15 99 1015.7
20260506221853 18 57 0.0 1.6 1.98 3.12 3.12 99 1015.2
20260506221350 18 319 1.6 4.8 1.02 2.90 2.90 99 1016.1
20260506220848 18 180 6.4 6.4 1.37 2.79 2.79 99 1015.7
20260506220343 18 182 1.6 4.8 1.07 2.69 2.69 99 1015.4
20260506215841 18 187 0.0 1.6 0.30 2.57 2.57 99 1015.6
20260506215336 18 189 0.0 0.0 0.00 2.51 2.51 99 1015.1
20260506214832 18 171 1.6 1.6 0.13 2.51 2.51 99 1015.2
20260506214329 18 182 0.0 1.6 0.13 2.51 2.51 98 1015.4
20260506213827 18 286 1.6 3.2 0.00 2.49 2.49 98 1015.2
20260506213324 18 222 0.0 3.2 0.00 2.49 2.49 98 1014.9
20260506212822 18 151 0.0 0.0 0.00 2.49 2.49 98 1014.9
20260506212317 18 266 1.6 1.6 0.00 2.49 2.49 98 1015.1
20260506211812 18 192 0.0 4.8 0.30 2.49 2.49 98 1015.1
20260506211308 18 179 3.2 3.2 0.30 2.49 2.49 98 1015.4
20260506210806 18 192 0.0 3.2 0.30 2.44 2.44 98 1016.1
20260506210303 18 274 1.6 4.8 0.30 2.44 2.44 98 1015.8
20260506205800 18 91 0.0 4.8 0.00 2.39 2.39 98 1015.8
20260506205256 18 208 1.6 4.8 0.00 2.39 2.39 98 1016.0
20260506204752 18 160 0.0 1.6 0.18 2.39 2.39 98 1015.3
20260506204250 18 172 0.0 3.2 0.18 2.39 2.39 98 1015.5
20260506203748 18 129 0.0 6.4 0.00 2.36 2.36 97 1015.7
20260506203245 19 256 1.6 3.2 0.00 2.36 2.36 97 1016.2
20260506202742 19 180 4.8 4.8 0.30 2.36 2.36 97 1015.9
20260506202238 19 199 6.4 9.7 0.48 2.34 2.34 97 1015.5
20260506201735 19 206 0.0 11.3 0.30 2.31 2.31 97 1016.4
20260506201232 19 156 0.0 1.6 0.00 2.26 2.26 97 1016.2
20260506200729 19 255 1.6 3.2 0.00 2.26 2.26 97 1015.7
20260506200226 20 281 0.0 4.8 0.18 2.26 2.26 97 1015.4
20260506195722 20 188 3.2 4.8 0.18 2.26 2.26 97 1015.6
20260506195218 20 181 0.0 3.2 0.00 2.24 2.24 97 1015.9
20260506194715 20 224 1.6 9.7 0.00 2.24 2.24 98 1015.8
20260506194212 20 212 3.2 11.3 0.00 2.24 2.24 98 1016.0
20260506193710 20 186 4.8 9.7 0.00 2.24 2.24 98 1015.8
20260506193207 20 205 3.2 12.9 0.30 2.24 2.24 98 1016.3
20260506192704 20 202 4.8 4.8 0.61 2.24 2.24 98 1016.4
20260506192200 20 184 0.0 1.6 0.30 2.18 2.18 98 1016.1
20260506191657 20 294 0.0 3.2 0.00 2.13 2.13 98 1016.2
20260506191153 20 196 3.2 4.8 0.13 2.13 2.13 98 1016.7
20260506190650 20 186 6.4 9.7 0.00 2.11 2.11 98 1016.0
20260506190147 20 177 6.4 9.7 0.00 2.11 2.11 98 1015.8
20260506185644 20 188 6.4 9.7 0.00 2.11 2.11 98 1016.3
20260506185140 20 153 4.8 6.4 0.18 2.11 2.11 97 1015.8
20260506184638 20 163 4.8 6.4 0.13 2.08 2.08 97 1015.9
20260506184135 20 170 4.8 9.7 0.30 2.08 2.08 97 1016.6
20260506183631 20 175 9.7 11.3 0.30 2.06 2.06 96 1016.9
20260506183127 20 172 8.0 9.7 0.61 2.03 2.03 96 1016.7
20260506182625 20 190 3.2 6.4 1.27 2.01 2.01 96 1016.7
20260506182122 20 161 1.6 3.2 1.07 1.93 1.93 95 1016.4
20260506181620 20 180 0.0 3.2 0.43 1.80 1.80 94 1017.7
20260506181117 21 274 1.6 3.2 0.30 1.75 1.75 94 1017.3
20260506180613 21 258 1.6 6.4 0.18 1.73 1.73 93 1017.1
20260506180110 21 155 0.0 4.8 0.00 1.70 1.70 93 1017.2
20260506175606 21 187 9.7 12.9 0.00 1.70 1.70 93 1016.9
20260506175102 21 203 9.7 11.3 0.00 1.70 1.70 93 1017.2
20260506174601 21 198 9.7 11.3 0.00 1.70 1.70 92 1017.0
20260506174057 21 187 8.0 9.7 0.00 1.70 1.70 92 1017.1
20260506173555 21 202 8.0 11.3 0.00 1.70 1.70 92 1016.9
20260506173051 21 310 1.6 4.8 0.00 1.70 1.70 93 1017.0
20260506172549 21 196 6.4 9.7 0.00 1.70 1.70 93 1016.6
20260506172040 21 211 4.8 11.3 0.00 1.70 1.70 93 1016.5
20260506171537 21 169 3.2 11.3 0.00 1.70 1.70 93 1016.6
20260506171035 21 201 4.8 6.4 0.00 1.70 1.70 93 1016.6
20260506170532 21 192 8.0 9.7 0.00 1.70 1.70 93 1016.6
20260506170029 21 190 9.7 11.3 0.00 1.70 1.70 93 1016.2
20260506165527 21 191 11.3 14.5 0.00 1.70 1.70 92 1016.3
20260506165023 21 197 8.0 9.7 0.00 1.70 1.70 93 1016.5
20260506164520 21 192 11.3 14.5 0.00 1.70 1.70 93 1016.6
20260506164018 21 178 12.9 14.5 0.00 1.70 1.70 94 1016.1
20260506163513 20 193 9.7 16.1 0.00 1.70 1.70 96 1016.2
20260506163009 20 186 12.9 14.5 0.00 1.70 1.70 96 1016.3
20260506162506 20 189 14.5 16.1 0.00 1.70 1.70 97 1016.4
20260506161957 20 174 14.5 16.1 0.00 1.70 1.70 98 1015.9
20260506161455 20 197 11.3 12.9 0.00 1.70 1.70 98 1016.2
20260506160952 20 187 11.3 16.1 0.00 1.70 1.70 98 1016.2
20260506160450 20 172 12.9 14.5 0.00 1.70 1.70 99 1016.3
20260506155947 20 181 12.9 14.5 0.00 1.70 1.70 99 1016.3
20260506155445 19 190 12.9 16.1 0.00 1.70 1.70 99 1016.3
20260506153616 19 179 11.3 12.9 0.00 1.70 1.70 99 1016.2
20260506153114 19 196 8.0 12.9 0.00 1.70 1.70 99 1016.7
20260506152611 19 188 6.4 6.4 0.00 1.70 1.70 99 1017.1
20260506152108 18 196 3.2 11.3 0.00 1.70 1.70 99 1017.3
20260506151606 18 190 6.4 11.3 0.00 1.70 1.70 99 1017.2
20260506151103 18 195 6.4 9.7 0.00 1.70 1.70 99 1017.2
20260506150600 18 202 6.4 6.4 0.00 1.70 1.70 99 1017.1
20260506150057 18 186 3.2 6.4 0.13 1.70 1.70 99 1017.2
20260506145553 18 149 9.7 11.3 0.13 1.70 1.70 99 1016.4
20260506145051 18 131 9.7 11.3 0.18 1.68 1.68 99 1016.0
20260506144547 18 135 6.4 6.4 0.36 1.68 1.68 99 1017.1
20260506144044 18 146 6.4 9.7 0.18 1.65 1.65 99 1017.4
20260506143542 18 172 6.4 9.7 0.30 1.63 1.63 99 1017.9
20260506143041 18 188 9.7 9.7 0.61 1.63 1.63 99 1017.9
20260506142538 18 177 3.2 4.8 0.89 1.55 1.55 99 1017.9
20260506142036 18 164 0.0 0.0 2.69 1.52 1.52 99 1017.6
20260506141533 18 91 3.2 3.2 2.64 1.40 1.40 99 1017.4
20260506141032 18 208 0.0 3.2 1.07 1.07 1.07 99 1018.5
20260506140529 18 149 0.0 0.0 1.19 0.97 0.97 99 1018.0
20260506140026 18 59 0.0 0.0 1.07 0.86 0.86 99 1018.0
20260506135523 18 232 0.0 0.0 0.79 0.76 0.76 99 1017.9
20260506135019 17 259 0.0 0.0 0.43 0.69 0.69 99 1017.7
20260506134515 17 335 0.0 3.2 0.30 0.64 0.64 99 1017.7
20260506134012 17 290 1.6 3.2 0.48 0.61 0.61 99 1017.5
20260506133509 18 289 3.2 4.8 0.48 0.56 0.56 98 1017.4
20260506133005 18 265 3.2 4.8 0.61 0.53 0.53 98 1017.7
20260506132503 18 338 0.0 3.2 0.61 0.48 0.48 98 1017.2
20260506132000 18 286 1.6 3.2 0.30 0.43 0.43 98 1017.1
20260506131457 18 265 1.6 3.2 0.18 0.38 0.38 97 1017.0
20260506130953 18 281 1.6 4.8 0.30 0.38 0.38 97 1017.1
20260506130450 18 159 0.0 4.8 0.43 0.36 0.36 97 1016.5
20260506125948 18 227 1.6 3.2 1.07 0.33 0.33 97 1016.9
20260506125446 18 174 3.2 11.3 1.02 0.25 0.25 96 1016.7
20260506124944 18 187 0.0 3.2 0.79 0.15 0.15 96 1016.6
20260506124441 18 243 4.8 6.4 0.36 0.08 0.08 96 1016.4
20260506123939 18 176 3.2 4.8 0.00 0.03 0.03 96 1015.8
20260506123437 18 250 0.0 0.0 0.00 0.03 0.03 96 1016.2
20260506122934 18 285 0.0 0.0 0.00 0.03 0.03 96 1015.8
20260506122430 18 274 1.6 3.2 0.00 0.03 0.03 95 1015.9
20260506121929 18 275 1.6 3.2 0.00 0.03 0.03 95 1015.8
20260506121426 18 314 1.6 3.2 0.00 0.03 0.03 95 1015.7
20260506120923 18 282 3.2 3.2 0.00 0.03 0.03 94 1015.8
20260506120420 18 279 3.2 3.2 0.00 0.03 0.03 94 1015.6
20260506115917 18 182 0.0 3.2 0.13 0.03 0.03 93 1015.6
20260506115415 18 225 0.0 1.6 0.13 0.03 0.03 92 1015.6
20260506114913 18 225 0.0 1.6 0.00 0.00 0.00 91 1015.3
20260506114410 18 148 0.0 1.6 0.00 0.00 0.00 90 1015.4
20260506113909 18 219 1.6 1.6 0.00 0.00 0.00 90 1015.5
20260506113406 19 269 0.0 3.2 0.00 0.00 0.00 89 1015.4
20260506112903 19 265 1.6 3.2 0.00 0.00 0.00 89 1015.3
20260506112400 19 171 0.0 6.4 0.00 0.00 0.00 88 1015.3
20260506111857 19 194 3.2 6.4 0.00 0.00 0.00 88 1015.1
20260506111355 19 241 1.6 4.8 0.00 0.00 0.00 88 1015.2
20260506110853 19 163 0.0 3.2 0.00 0.00 0.00 87 1015.3